Regional Weather Roundup
Issued by NWS

Home | Current Version | Previous Version | Graphics & Text | Print | Product List | Glossary On
Versions: 1 2 3 4 5 6 7 8 9 10 11 12 13 14 15 16 17 18 19 20 21 22 23 24 25 26 27 28 29 30 31 32 33 34 35 36 37 38 39 40 41 42 43 44 45 46 47 48 49 50
000
ASUS43 KIND 210709
RWRIN

WEATHER ROUNDUP FOR INDIANA
NATIONAL WEATHER SERVICE INDIANAPOLIS IN
300 AM EDT MON AUG 21 2017

NOTE: "FAIR" INDICATES FEW OR NO CLOUDS BELOW 12,000 FEET WITH NO
SIGNIFICANT WEATHER AND/OR OBSTRUCTIONS TO VISIBILITY.

* - STATION DOES NOT REPORT WEATHER SUCH AS PRECIPITATION OR FOG.

+ - STATION NOT QUALITY CONTROLLED BY THE NATIONAL WEATHER SERVICE.
    USE DATA WITH CAUTION...ESPECIALLY DEWPOINT AND RELATIVE
    HUMIDITY OBSERVATIONS.

INZ001>003-010>013-019-020-210800-
NORTHWEST INDIANA

CITY           SKY/WX    TMP DP  RH WIND       PRES   REMARKS
GARY /AIRPORT/ LGT RAIN  76  67  72 S3        30.07S
KNOX *+        CLOUDY    72  63  73 S8        30.07F
LA PORTE +     CLOUDY    73  67  81 S5        30.10R
MICHIGAN CITY+ CLOUDY    73  64  73 S6        30.08S
MONTICELLO +   LGT RAIN  71  69  95 CALM      30.06F
RENSSELAER +   MOCLDY    70  64  83 SE5       30.06F
VALPARAISO     LGT RAIN  74  69  85 S6        30.09R

$$

LMZ046-743>745-210800-
SOUTHERN LAKE MICHIGAN

STATION/POSITION TIME  TEMP    WIND        PRES    WAVE
                       AIR SEA DIR/SP/G            HT
                 (UTC) (F)     (DEG/KT/KT) (MB)    (FT)
BURNS HARBOR     0640   76     190/ 10/ 14 1018.3S
MICHIGAN CITY    0640   77     160/ 10/ 12   N/A
5NW MICH CITY    0700   76 75  190/ 10/ 12   N/A     1

$$

INZ004-005-014>016-021>024-210800-
NORTH CENTRAL INDIANA

CITY           SKY/WX    TMP DP  RH WIND       PRES   REMARKS
GOSHEN         CLOUDY    73  66  78 S5        30.11R
LOGANSPORT +   RAIN      70  66  88 S14       30.08F
PERU/GRISSOM   LGT RAIN  71  70  95 S3        30.09F
ROCHESTER +    CLOUDY    73  66  78 CALM      30.11F
SOUTH BEND     CLOUDY    74  68  81 S8        30.09S
WARSAW +       CLOUDY    70  68  94 CALM      30.11R

$$

INZ006>009-017-018-025>027-210800-
NORTHEAST INDIANA

CITY           SKY/WX    TMP DP  RH WIND       PRES   REMARKS
AUBURN +       MOCLDY    68  64  88 CALM      30.12S
FORT WAYNE     CLOUDY    68  64  87 CALM      30.12R
HUNTINGTON +   MOCLDY    71  67  86 CALM      30.12R

$$

INZ028-029-035-036-043>045-051>053-210800-
WEST CENTRAL INDIANA

CITY           SKY/WX    TMP DP  RH WIND       PRES   REMARKS
GREENCASTLE +  CLEAR     72  68  88 CALM      30.11S
LAFAYETTE      TSTM      68  67  96 NW7       30.10S FOG
TERRE HAUTE    CLEAR     71  68  90 SE3       30.09S

$$

INZ030>032-037>040-046>048-054>057-064-065-210800-
CENTRAL INDIANA

CITY           SKY/WX    TMP DP  RH WIND       PRES   REMARKS
CP ATTERBURY + CLEAR     68  66  94 CALM      30.12S
FRANKFORT +    CLOUDY    74  64  68 N17G24    30.15R
GREENWOOD *+   PTCLDY    74  68  82 S5        30.12R
INDIANAPOLIS   PTCLDY    73  69  87 S3        30.09S
-EAGLE CREEK   CLEAR     74  69  85 CALM      30.10S
KOKOMO +       TSTM      71  68  90 E5        30.11S
MARION +       LGT RAIN  70  66  88 CALM      30.13R
MT COMFORT *+  PTCLDY    70  68  94 S3        30.12S
SHELBYVILLE    CLEAR     71  66  84 S5        30.10F
ZIONSVILLE +   MOCLDY    67  66  97 CALM      30.11S

$$

INZ033-034-041-042-049-050-058-059-210800-
EAST CENTRAL INDIANA

CITY           SKY/WX    TMP DP  RH WIND       PRES   REMARKS
MUNCIE         CLOUDY    77  67  71 S5        30.12S
RICHMOND +     MOCLDY    68  64  88 S6        30.15R

$$

INZ060-061-067>069-081>083-085>088-210800-
SOUTHWEST INDIANA

CITY           SKY/WX    TMP DP  RH WIND       PRES   REMARKS
EVANSVILLE     PTCLDY    73  68  84 CALM      30.11R
HUNTINGBURG +  PTCLDY    72  69  90 CALM      30.12R
WASHINGTON +   PTCLDY    69  67  94 MISG      30.11R

$$

INZ062-063-066-070>080-084-089>092-210800-
SOUTH CENTRAL AND SOUTHEAST INDIANA

CITY           SKY/WX    TMP DP  RH WIND       PRES   REMARKS
BEDFORD +      CLEAR     72  68  88 CALM      30.12
BLOOMINGTON    CLEAR     73  67  81 SW3       30.11S
MADISON *+     CLEAR     70  68  94 CALM      30.15R
NORTH VERNON + PTCLDY    68  66  94 CALM      30.13R
SEYMOUR +      CLEAR     70  70 100 CALM      30.12

$$





USA.gov is the U.S. government's official web portal to all federal, state and local government web resources and services.